South Haven, MI

8:44 AM EDT on October 22, 2017 (GMT -0400)
South Haven

Weather History for KLWA - January, 2014

Change the Weather History Date:

Saturday, January 25, 2014

  Actual Average (KBEH) Record (KBEH)
Temperature  
Mean Temperature 22 °F -  
Max Temperature 31 °F 33 °F 68 °F (1950)
Min Temperature 14 °F 19 °F -8 °F (1961)
Degree Days  
Heating Degree Days 42    
Moisture  
Dew Point 13 °F    
Average Humidity 73    
Maximum Humidity 96    
Minimum Humidity 54    
Precipitation  
Precipitation 0.00 in - - ()
Sea Level Pressure  
Sea Level Pressure 29.53 in    
Wind  
Wind Speed 18 mph (WNW)    
Max Wind Speed 24 mph    
Max Gust Speed 40 mph    
Visibility 4 miles    
Events Snow    
Averages and records for this station are not official NWS values.
T = Trace of Precipitation, MM = Missing Value Source: NWS Daily Summary

Daily Weather History Graph

Daily Weather History Graph

Search for Another Location

Airport or City:

Trip Planner

Search our weather history database for the weather conditions in past years. The results will help you decide how hot, cold, wet, or windy it might be!

Date:

Astronomy

Jan. 25, 2014 Rise Set
Actual Time 8:05 AM EST 5:50 PM EST
Civil Twilight 7:34 AM EST 6:20 PM EST
Nautical Twilight 7:00 AM EST 6:54 PM EST
Astronomical Twilight 6:27 AM EST 7:27 PM EST
Moon 2:36 AM EST (1/25) 12:50 PM EST (1/25)
Length of Visible Light 10h 45m
Length of Day
9h 45m
Waning Crescent, 34% of the Moon is Illuminated
Jan 25
Waning Crescent
Jan 30
New
Feb 6
First Quarter
Feb 14
Full
Feb 22
Last Quarter

Hourly Weather History & Observations

Time (EST) Temp. Windchill Dew Point Humidity Pressure Visibility Wind Dir Wind Speed Gust Speed Precip Events Conditions
12:15 AM 23.9 °F 8.1 °F 21.7 °F 91% 29.45 in 1.0 mi SW 24.2 mph 31.1 mph N/A Snow Snow
12:35 AM 24.4 °F 9.5 °F 22.1 °F 91% 29.44 in 1.0 mi SW 21.9 mph 33.4 mph N/A Snow Light Snow
12:55 AM 24.6 °F 9.7 °F 22.5 °F 91% 29.42 in 1.0 mi SW 21.9 mph 33.4 mph N/A Snow Snow
1:15 AM 24.4 °F 10.6 °F 22.5 °F 92% 29.41 in 1.0 mi SW 18.4 mph 33.4 mph N/A Snow Snow
1:35 AM 24.6 °F 10.5 °F 22.6 °F 92% 29.39 in 0.8 mi SW 19.6 mph 33.4 mph N/A Snow Snow
1:55 AM 24.8 °F 12.4 °F 23.0 °F 93% 29.38 in 0.8 mi SW 15.0 mph 25.3 mph N/A Snow Snow
2:15 AM 25.3 °F 11.4 °F 23.5 °F 93% 29.37 in 1.0 mi SW 19.6 mph 27.6 mph N/A Snow Light Snow
2:35 AM 25.5 °F 11.3 °F 23.9 °F 94% 29.36 in 1.2 mi SW 20.7 mph 25.3 mph N/A Snow Light Snow
2:55 AM 26.2 °F 13.0 °F 24.8 °F 94% 29.36 in 1.0 mi SW 18.4 mph 26.5 mph N/A Snow Light Snow
3:15 AM 27.0 °F 15.2 °F 25.7 °F 95% 29.34 in 0.8 mi SW 15.0 mph 26.5 mph N/A Snow Snow
3:35 AM 27.5 °F 15.9 °F 26.6 °F 96% 29.34 in 1.0 mi WSW 15.0 mph 21.9 mph N/A Snow Light Snow
3:55 AM 29.3 °F 17.3 °F 28.4 °F 96% 29.33 in 1.0 mi WSW 17.3 mph 26.5 mph N/A Snow Snow
4:15 AM 30.0 °F 19.5 °F 29.1 °F 96% 29.32 in 1.2 mi WSW 13.8 mph 25.3 mph N/A Snow Light Snow
4:35 AM 30.2 °F 17.8 °F 29.3 °F 96% 29.32 in 1.2 mi WSW 19.6 mph 28.8 mph N/A Snow Light Snow
4:55 AM 31.1 °F 21.4 °F 30.2 °F 96% 29.33 in 1.2 mi WNW 12.7 mph 24.2 mph N/A Snow Light Snow
5:15 AM 31.1 °F 22.4 °F 29.8 °F 95% 29.32 in 2.5 mi WNW 10.4 mph 16.1 mph N/A Snow Light Snow
5:35 AM 30.4 °F 18.0 °F 28.9 °F 94% 29.33 in 1.0 mi NW 19.6 mph 25.3 mph N/A Snow Snow
5:55 AM 30.4 °F 18.4 °F 23.9 °F 77% 29.33 in 7.0 mi NW 18.4 mph 25.3 mph N/A Snow Light Snow
6:15 AM 30.7 °F 21.4 °F 21.0 °F 67% 29.33 in 10.0 mi NW 11.5 mph 24.2 mph N/A   Overcast
6:35 AM 30.4 °F 21.0 °F 18.9 °F 62% 29.34 in 10.0 mi NW 11.5 mph 23.0 mph N/A   Overcast
6:55 AM 30.4 °F 20.5 °F 18.5 °F 61% 29.34 in 10.0 mi NW 12.7 mph 28.8 mph N/A   Overcast
7:15 AM 30.0 °F 19.5 °F 18.3 °F 62% 29.35 in 10.0 mi NW 13.8 mph 24.2 mph N/A   Overcast
7:35 AM 29.3 °F 18.2 °F 16.7 °F 59% 29.36 in 10.0 mi NW 15.0 mph 31.1 mph N/A   Overcast
7:55 AM 29.1 °F 17.9 °F 18.1 °F 64% 29.36 in 10.0 mi NW 15.0 mph 25.3 mph N/A   Overcast
8:15 AM 28.4 °F 16.6 °F 17.6 °F 64% 29.37 in 5.0 mi NW 16.1 mph 29.9 mph N/A   Haze
8:35 AM 27.9 °F 14.4 °F 18.3 °F 67% 29.37 in 4.0 mi NNW 20.7 mph 31.1 mph N/A   Haze
8:55 AM 26.2 °F 11.2 °F 15.6 °F 64% 29.39 in 2.5 mi NW 24.2 mph 33.4 mph N/A Snow Light Snow
9:15 AM 24.8 °F 10.0 °F 14.2 °F 64% 29.41 in 2.0 mi NW 21.9 mph 40.3 mph N/A   Haze
9:35 AM 24.8 °F 11.1 °F 11.7 °F 57% 29.42 in 5.0 mi WNW 18.4 mph 27.6 mph N/A   Haze
9:55 AM 24.1 °F 11.0 °F 9.7 °F 54% 29.43 in 4.0 mi NW 16.1 mph 26.5 mph N/A   Haze
10:15 AM 22.3 °F 10.2 °F 18.3 °F 85% 29.45 in 0.5 mi NNW 12.7 mph 29.9 mph N/A Snow Light Snow
10:35 AM 20.8 °F 5.9 °F 17.8 °F 88% 29.47 in 0.5 mi NNW 18.4 mph 23.0 mph N/A Snow Light Snow
10:55 AM 19.8 °F 5.0 °F 16.3 °F 87% 29.48 in 0.2 mi NNW 17.3 mph 27.6 mph N/A Snow Snow
11:15 AM 19.8 °F 5.9 °F 14.5 °F 80% 29.50 in 1.0 mi NNW 15.0 mph 24.2 mph N/A Snow Light Snow
11:35 AM 19.9 °F 5.2 °F 10.6 °F 67% 29.51 in 1.8 mi NNW 17.3 mph 29.9 mph N/A   Haze
11:55 AM 19.4 °F 2.1 °F 10.2 °F 68% 29.52 in 1.8 mi NNW 24.2 mph 33.4 mph N/A   Haze
12:15 PM 19.4 °F 4.1 °F 9.3 °F 65% 29.52 in 2.0 mi NNW 18.4 mph 29.9 mph N/A   Haze
12:35 PM 18.9 °F 3.3 °F 9.9 °F 68% 29.53 in 1.8 mi NNW 18.4 mph 32.2 mph N/A   Haze
12:55 PM 18.5 °F 3.8 °F 8.2 °F 64% 29.54 in 2.0 mi NNW 16.1 mph 29.9 mph N/A   Haze
1:15 PM 18.0 °F 2.6 °F 9.3 °F 69% 29.55 in 1.2 mi NNW 17.3 mph 31.1 mph N/A Snow Light Snow
1:35 PM 17.4 °F 0.2 °F 8.2 °F 67% 29.56 in 1.0 mi NW 21.9 mph 35.7 mph N/A Snow Light Snow
1:55 PM 17.6 °F 0.5 °F 4.8 °F 57% 29.57 in 4.0 mi NW 21.9 mph 31.1 mph N/A   Haze
2:15 PM 16.5 °F -1.7 °F 8.2 °F 70% 29.58 in 1.2 mi NNW 24.2 mph 32.2 mph N/A Snow Light Snow
2:35 PM 15.8 °F -1.1 °F 7.9 °F 71% 29.59 in 1.0 mi NW 19.6 mph 31.1 mph N/A Snow Light Snow
2:55 PM 16.2 °F -0.6 °F 5.0 °F 62% 29.59 in 2.5 mi NW 19.6 mph 27.6 mph N/A Snow Light Snow
3:15 PM 16.2 °F 0.8 °F 5.7 °F 64% 29.61 in 2.5 mi NW 16.1 mph 25.3 mph N/A Snow Light Snow
3:35 PM 15.4 °F -0.6 °F 8.4 °F 74% 29.61 in 0.8 mi WNW 17.3 mph 24.2 mph N/A Snow Light Snow
3:55 PM 15.3 °F -0.4 °F 8.2 °F 74% 29.63 in 0.8 mi WNW 16.1 mph 31.1 mph N/A Snow Light Snow
4:15 PM 14.7 °F -2.0 °F 6.1 °F 69% 29.64 in 1.0 mi WNW 18.4 mph 27.6 mph N/A Snow Light Snow
4:35 PM 14.9 °F -0.3 °F 1.9 °F 57% 29.65 in 7.0 mi WNW 15.0 mph 27.6 mph N/A   Overcast
4:55 PM 14.5 °F -2.3 °F 7.3 °F 73% 29.66 in 2.5 mi NW 18.4 mph 26.5 mph N/A Snow Light Snow
5:15 PM 14.9 °F -1.3 °F 5.0 °F 65% 29.67 in 2.5 mi WNW 17.3 mph 24.2 mph N/A Snow Light Snow
5:35 PM 14.5 °F -1.8 °F 3.4 °F 61% 29.69 in 3.0 mi WNW 17.3 mph 27.6 mph N/A   Haze
5:55 PM 14.5 °F -3.2 °F 4.5 °F 64% 29.70 in 2.0 mi WNW 20.7 mph 33.4 mph N/A Snow Light Snow
6:15 PM 14.7 °F -2.5 °F 5.7 °F 68% 29.71 in 3.0 mi WNW 19.6 mph 27.6 mph N/A Snow Light Snow
6:35 PM 14.2 °F -2.3 °F 3.6 °F 63% 29.72 in 3.0 mi WNW 17.3 mph 32.2 mph N/A Snow Light Snow
6:55 PM 14.4 °F -2.5 °F 5.7 °F 69% 29.73 in 4.0 mi NW 18.4 mph 27.6 mph N/A Snow Light Snow
7:15 PM 14.4 °F 1.6 °F 4.8 °F 66% 29.74 in 5.0 mi NW 10.4 mph 27.6 mph N/A Snow Light Snow
7:35 PM 14.5 °F -0.7 °F 4.8 °F 65% 29.75 in 4.0 mi NW 15.0 mph 24.2 mph N/A Snow Light Snow
7:55 PM 14.5 °F -0.2 °F 3.9 °F 63% 29.75 in 3.0 mi NW 13.8 mph 29.9 mph N/A Snow Light Snow
8:15 PM 14.4 °F -1.5 °F 6.4 °F 71% 29.75 in 2.5 mi WNW 16.1 mph 25.3 mph N/A Snow Light Snow
8:35 PM 14.5 °F 1.1 °F 3.6 °F 62% 29.76 in 10.0 mi NW 11.5 mph 18.4 mph N/A   Overcast
8:55 PM 14.0 °F -2.0 °F 6.3 °F 71% 29.76 in 2.0 mi WNW 16.1 mph 26.5 mph N/A Snow Light Snow
9:15 PM 14.5 °F -1.3 °F 4.5 °F 64% 29.77 in 7.0 mi WNW 16.1 mph 24.2 mph N/A Snow Light Snow
9:35 PM 14.4 °F 0.2 °F 5.2 °F 67% 29.78 in 4.0 mi WNW 12.7 mph 23.0 mph N/A Snow Light Snow
9:55 PM 14.0 °F -1.4 °F 5.4 °F 69% 29.78 in 3.0 mi WNW 15.0 mph 23.0 mph N/A Snow Light Snow
10:15 PM 14.0 °F -0.2 °F 4.1 °F 65% 29.78 in 4.0 mi WNW 12.7 mph 25.3 mph N/A Snow Light Snow
10:35 PM 14.0 °F 0.5 °F 5.5 °F 69% 29.77 in 4.0 mi WNW 11.5 mph 23.0 mph N/A Snow Light Snow
10:55 PM 14.0 °F -0.8 °F 3.9 °F 64% 29.78 in 10.0 mi WNW 13.8 mph 21.9 mph N/A   Overcast
11:15 PM 14.0 °F -0.8 °F 2.7 °F 61% 29.78 in 10.0 mi WNW 13.8 mph 23.0 mph N/A   Overcast
11:35 PM 14.0 °F 1.2 °F 2.3 °F 60% 29.79 in 10.0 mi WNW 10.4 mph 23.0 mph N/A   Overcast
11:55 PM 14.0 °F -0.8 °F 3.7 °F 64% 29.77 in 10.0 mi West 13.8 mph 19.6 mph N/A   Overcast